Time,TemperatureF,DewpointF,PressureIn,WindDirection,WindDirectionDegrees,WindSpeedMPH,WindSpeedGustMPH,Humidity,HourlyPrecipIn,Conditions,Clouds,dailyrainin,SoftwareType,DateUTC
2013-03-31 00:00:00,54.6,40.1,0.00,NW,315,0.0,0.0,58,0.00,,,0.00,WUHU216HW,2013-03-31 04:00:00,
2013-03-31 00:05:00,54.6,40.1,0.00,NW,315,0.0,0.8,58,0.00,,,0.00,WUHU216HW,2013-03-31 04:05:00,
2013-03-31 00:10:00,54.8,40.2,0.00,NNW,338,0.0,2.0,58,0.00,,,0.00,WUHU216HW,2013-03-31 04:10:00,
2013-03-31 00:15:00,55.0,39.9,0.00,WNW,293,0.0,2.0,57,0.00,,,0.00,WUHU216HW,2013-03-31 04:15:00,
2013-03-31 00:20:00,55.0,39.9,0.00,NW,315,0.0,5.3,57,0.00,,,0.00,WUHU216HW,2013-03-31 04:20:00,
2013-03-31 00:25:00,55.0,40.4,0.00,NNW,338,4.9,5.3,58,0.00,,,0.00,WUHU216HW,2013-03-31 04:25:00,
2013-03-31 00:30:00,54.5,40.4,0.00,North,0,0.0,4.9,59,0.00,,,0.00,WUHU216HW,2013-03-31 04:30:00,
2013-03-31 00:35:00,54.3,40.7,0.00,NW,315,0.0,2.4,60,0.00,,,0.00,WUHU216HW,2013-03-31 04:35:00,
2013-03-31 00:40:00,53.9,40.4,0.00,NNW,338,0.0,0.0,60,0.00,,,0.00,WUHU216HW,2013-03-31 04:40:00,
2013-03-31 00:45:00,53.7,40.6,0.00,NNW,338,0.0,0.0,61,0.00,,,0.00,WUHU216HW,2013-03-31 04:45:00,
2013-03-31 00:50:00,53.4,40.7,0.00,NW,315,0.0,0.0,62,0.00,,,0.00,WUHU216HW,2013-03-31 04:50:00,
2013-03-31 00:55:00,53.2,40.9,0.00,NNW,338,0.0,1.1,63,0.00,,,0.00,WUHU216HW,2013-03-31 04:55:00,
2013-03-31 01:00:00,52.8,40.5,0.00,NW,315,0.0,1.1,63,0.00,,,0.00,WUHU216HW,2013-03-31 05:00:00,
2013-03-31 01:10:00,52.8,40.5,0.00,NW,315,0.0,0.0,63,0.00,,,0.00,WUHU216HW,2013-03-31 05:10:00,
2013-03-31 01:15:00,51.8,41.1,0.00,NNW,338,0.0,0.0,67,0.00,,,0.00,WUHU216HW,2013-03-31 05:15:00,
2013-03-31 01:20:00,51.2,41.4,0.00,NW,315,0.0,0.0,69,0.00,,,0.00,WUHU216HW,2013-03-31 05:20:00,
2013-03-31 01:25:00,50.7,41.3,0.00,NW,315,0.0,0.0,70,0.00,,,0.00,WUHU216HW,2013-03-31 05:25:00,
2013-03-31 01:30:00,50.1,41.1,0.00,WNW,293,0.0,0.0,71,0.00,,,0.00,WUHU216HW,2013-03-31 05:30:00,
2013-03-31 01:35:00,49.8,41.4,0.00,WNW,293,0.0,0.0,73,0.00,,,0.00,WUHU216HW,2013-03-31 05:35:00,
2013-03-31 01:40:00,49.2,41.2,0.00,WNW,293,0.0,0.0,74,0.00,,,0.00,WUHU216HW,2013-03-31 05:40:00,
2013-03-31 01:45:00,49.1,41.4,0.00,WNW,293,0.0,0.0,75,0.00,,,0.00,WUHU216HW,2013-03-31 05:45:00,
2013-03-31 01:50:00,48.7,41.6,0.00,WNW,293,0.0,0.0,76,0.00,,,0.00,WUHU216HW,2013-03-31 05:50:00,
2013-03-31 01:55:00,48.5,41.5,0.00,North,0,0.0,0.0,77,0.00,,,0.00,WUHU216HW,2013-03-31 05:55:00,
2013-03-31 02:00:00,48.3,41.7,0.00,NW,315,0.0,0.0,78,0.00,,,0.00,WUHU216HW,2013-03-31 06:00:00,
2013-03-31 02:05:00,48.2,41.9,0.00,NW,315,0.0,0.0,79,0.00,,,0.00,WUHU216HW,2013-03-31 06:05:00,
2013-03-31 02:10:00,48.2,41.9,0.00,North,0,0.0,0.0,79,0.00,,,0.00,WUHU216HW,2013-03-31 06:10:00,
2013-03-31 02:15:00,48.0,41.7,0.00,NW,315,0.0,0.0,79,0.00,,,0.00,WUHU216HW,2013-03-31 06:15:00,
2013-03-31 02:20:00,48.0,41.7,0.00,NW,315,0.0,0.0,79,0.00,,,0.00,WUHU216HW,2013-03-31 06:20:00,
2013-03-31 02:25:00,48.0,42.0,0.00,NW,315,0.0,0.0,80,0.00,,,0.00,WUHU216HW,2013-03-31 06:25:00,
2013-03-31 02:30:00,47.8,41.9,0.00,NW,315,0.0,0.0,80,0.00,,,0.00,WUHU216HW,2013-03-31 06:30:00,
2013-03-31 02:35:00,47.8,41.9,0.00,NW,315,0.0,0.0,80,0.00,,,0.00,WUHU216HW,2013-03-31 06:35:00,
2013-03-31 02:40:00,47.8,42.2,0.00,NW,315,0.0,0.0,81,0.00,,,0.00,WUHU216HW,2013-03-31 06:40:00,
2013-03-31 02:45:00,47.8,42.2,0.00,NW,315,0.0,1.5,81,0.00,,,0.00,WUHU216HW,2013-03-31 06:45:00,
2013-03-31 02:50:00,47.8,42.2,0.00,NW,315,0.0,1.5,81,0.00,,,0.00,WUHU216HW,2013-03-31 06:50:00,
2013-03-31 02:55:00,47.8,42.2,0.00,NW,315,0.0,0.0,81,0.00,,,0.00,WUHU216HW,2013-03-31 06:55:00,
2013-03-31 03:00:00,47.8,42.2,0.00,NW,315,0.0,0.0,81,0.00,,,0.00,WUHU216HW,2013-03-31 07:00:00,
2013-03-31 03:05:00,47.8,42.2,0.00,NW,315,0.0,0.0,81,0.00,,,0.00,WUHU216HW,2013-03-31 07:05:00,
2013-03-31 03:10:00,47.8,42.5,0.00,NW,315,0.0,0.0,82,0.00,,,0.00,WUHU216HW,2013-03-31 07:10:00,
2013-03-31 03:15:00,48.0,42.7,0.00,NW,315,0.0,1.3,82,0.00,,,0.00,WUHU216HW,2013-03-31 07:15:00,
2013-03-31 03:20:00,48.0,42.7,0.00,NW,315,0.0,1.3,82,0.00,,,0.00,WUHU216HW,2013-03-31 07:20:00,
2013-03-31 03:25:00,48.0,43.0,0.00,NW,315,0.0,0.0,83,0.00,,,0.00,WUHU216HW,2013-03-31 07:25:00,
2013-03-31 03:30:00,48.0,43.0,0.00,NW,315,0.0,0.0,83,0.00,,,0.00,WUHU216HW,2013-03-31 07:30:00,
2013-03-31 03:35:00,48.0,43.0,0.00,NW,315,0.0,0.0,83,0.00,,,0.00,WUHU216HW,2013-03-31 07:35:00,
2013-03-31 03:40:00,48.0,43.0,0.00,NW,315,0.0,0.0,83,0.00,,,0.00,WUHU216HW,2013-03-31 07:40:00,
2013-03-31 03:45:00,48.0,43.0,0.00,NW,315,0.0,0.0,83,0.00,,,0.00,WUHU216HW,2013-03-31 07:45:00,
2013-03-31 03:50:00,48.0,43.0,0.00,NW,315,0.0,0.0,83,0.00,,,0.00,WUHU216HW,2013-03-31 07:50:00,
2013-03-31 03:55:00,48.2,43.2,0.00,NW,315,0.0,0.0,83,0.00,,,0.00,WUHU216HW,2013-03-31 07:55:00,
2013-03-31 04:00:00,48.2,43.2,0.00,NW,315,0.0,0.0,83,0.00,,,0.00,WUHU216HW,2013-03-31 08:00:00,
2013-03-31 04:05:00,48.0,43.0,0.00,NW,315,0.0,0.0,83,0.00,,,0.00,WUHU216HW,2013-03-31 08:05:00,
2013-03-31 04:10:00,48.0,43.0,0.00,NW,315,0.0,0.0,83,0.00,,,0.00,WUHU216HW,2013-03-31 08:10:00,
2013-03-31 04:15:00,48.0,43.0,0.00,NW,315,0.0,0.0,83,0.00,,,0.00,WUHU216HW,2013-03-31 08:15:00,
2013-03-31 04:20:00,48.0,43.0,0.00,NW,315,0.0,0.0,83,0.00,,,0.00,WUHU216HW,2013-03-31 08:20:00,
2013-03-31 04:25:00,48.0,43.0,0.00,NW,315,0.0,0.0,83,0.00,,,0.00,WUHU216HW,2013-03-31 08:25:00,
2013-03-31 04:30:00,48.0,43.0,0.00,NW,315,0.0,0.0,83,0.00,,,0.00,WUHU216HW,2013-03-31 08:30:00,
2013-03-31 04:35:00,47.8,42.8,0.00,NW,315,0.0,0.0,83,0.00,,,0.00,WUHU216HW,2013-03-31 08:35:00,
2013-03-31 04:40:00,47.8,43.2,0.00,NW,315,0.0,0.0,83,0.00,,,0.00,WUHU216HW,2013-03-31 08:40:00,
2013-03-31 04:45:00,47.8,43.2,0.00,NW,315,0.0,0.0,84,0.00,,,0.00,WUHU216HW,2013-03-31 08:45:00,
2013-03-31 04:50:00,47.8,43.2,0.00,NW,315,0.0,0.0,84,0.00,,,0.00,WUHU216HW,2013-03-31 08:50:00,
2013-03-31 04:55:00,47.8,43.2,0.00,NW,315,0.0,0.0,84,0.00,,,0.00,WUHU216HW,2013-03-31 08:55:00,
2013-03-31 05:00:00,47.8,43.2,0.00,NW,315,0.0,0.0,84,0.00,,,0.00,WUHU216HW,2013-03-31 09:00:00,
2013-03-31 05:05:00,47.8,43.2,0.00,NW,315,0.0,0.0,84,0.00,,,0.00,WUHU216HW,2013-03-31 09:05:00,
2013-03-31 05:10:00,47.8,43.2,0.00,NW,315,0.0,0.0,84,0.00,,,0.00,WUHU216HW,2013-03-31 09:10:00,
2013-03-31 05:15:00,47.8,43.2,0.00,NW,315,0.0,0.0,84,0.00,,,0.00,WUHU216HW,2013-03-31 09:15:00,
2013-03-31 05:20:00,47.8,43.0,0.00,NW,315,0.0,0.0,84,0.00,,,0.00,WUHU216HW,2013-03-31 09:20:00,
2013-03-31 05:25:00,47.8,43.2,0.00,NW,315,0.0,0.0,84,0.00,,,0.00,WUHU216HW,2013-03-31 09:25:00,
2013-03-31 05:30:00,47.6,43.0,0.00,NW,315,0.0,0.0,84,0.00,,,0.00,WUHU216HW,2013-03-31 09:30:00,
2013-03-31 05:35:00,47.8,43.0,0.00,NW,315,0.0,0.0,84,0.00,,,0.00,WUHU216HW,2013-03-31 09:35:00,
2013-03-31 05:40:00,47.6,43.0,0.00,NW,315,0.0,0.0,84,0.00,,,0.00,WUHU216HW,2013-03-31 09:40:00,
2013-03-31 05:45:00,47.6,43.0,0.00,NW,315,0.0,0.0,84,0.00,,,0.00,WUHU216HW,2013-03-31 09:45:00,
2013-03-31 05:50:00,47.6,43.0,0.00,NW,315,0.0,0.0,84,0.00,,,0.00,WUHU216HW,2013-03-31 09:50:00,
2013-03-31 05:55:00,47.4,42.8,0.00,NW,315,0.0,0.0,84,0.00,,,0.00,WUHU216HW,2013-03-31 09:55:00,
2013-03-31 06:00:00,47.4,42.8,0.00,NW,315,0.0,0.0,84,0.00,,,0.00,WUHU216HW,2013-03-31 10:00:00,
2013-03-31 06:05:00,47.4,42.8,0.00,NW,315,0.0,0.0,84,0.00,,,0.00,WUHU216HW,2013-03-31 10:05:00,
2013-03-31 06:10:00,47.4,42.8,0.00,NW,315,0.0,0.0,84,0.00,,,0.00,WUHU216HW,2013-03-31 10:10:00,
2013-03-31 06:15:00,47.4,42.8,0.00,NW,315,0.0,0.0,84,0.00,,,0.00,WUHU216HW,2013-03-31 10:15:00,
2013-03-31 06:20:00,47.4,42.8,0.00,NW,315,0.0,0.0,84,0.00,,,0.00,WUHU216HW,2013-03-31 10:20:00,
2013-03-31 06:25:00,47.4,42.8,0.00,NW,315,0.0,0.0,84,0.00,,,0.00,WUHU216HW,2013-03-31 10:25:00,
2013-03-31 06:30:00,47.4,42.8,0.00,NW,315,0.0,0.0,84,0.00,,,0.00,WUHU216HW,2013-03-31 10:30:00,
2013-03-31 06:35:00,47.4,42.8,0.00,NW,315,0.0,0.0,84,0.00,,,0.00,WUHU216HW,2013-03-31 10:35:00,
2013-03-31 06:40:00,47.4,42.8,0.00,NW,315,0.0,0.0,84,0.00,,,0.00,WUHU216HW,2013-03-31 10:40:00,
2013-03-31 06:45:00,47.4,43.1,0.00,NW,315,0.0,0.0,85,0.00,,,0.00,WUHU216HW,2013-03-31 10:45:00,
2013-03-31 06:50:00,47.4,43.1,0.00,NW,315,0.0,0.0,85,0.00,,,0.00,WUHU216HW,2013-03-31 10:50:00,
2013-03-31 06:55:00,47.4,43.1,0.00,NW,315,0.0,0.0,85,0.00,,,0.00,WUHU216HW,2013-03-31 10:55:00,
2013-03-31 07:00:00,47.4,43.1,0.00,NW,315,0.0,0.0,85,0.00,,,0.00,WUHU216HW,2013-03-31 11:00:00,
2013-03-31 07:05:00,47.4,43.1,0.00,NW,315,0.0,0.0,85,0.00,,,0.00,WUHU216HW,2013-03-31 11:05:00,
2013-03-31 07:10:00,47.4,43.1,0.00,NW,315,0.0,0.0,85,0.00,,,0.00,WUHU216HW,2013-03-31 11:10:00,
2013-03-31 07:15:00,47.4,43.1,0.00,NW,315,0.0,0.0,85,0.00,,,0.00,WUHU216HW,2013-03-31 11:15:00,
2013-03-31 07:20:00,47.4,43.1,0.00,NW,315,0.0,0.0,85,0.00,,,0.00,WUHU216HW,2013-03-31 11:20:00,
2013-03-31 07:25:00,47.4,43.1,0.00,NW,315,0.0,0.0,85,0.00,,,0.00,WUHU216HW,2013-03-31 11:25:00,
2013-03-31 07:30:00,47.4,43.1,0.00,NW,315,0.0,0.0,85,0.00,,,0.00,WUHU216HW,2013-03-31 11:30:00,
2013-03-31 07:35:00,47.4,43.1,0.00,NW,315,0.0,0.0,85,0.00,,,0.00,WUHU216HW,2013-03-31 11:35:00,
2013-03-31 07:40:00,47.4,43.1,0.00,NW,315,0.0,0.0,85,0.00,,,0.00,WUHU216HW,2013-03-31 11:40:00,
2013-03-31 07:45:00,47.4,43.1,0.00,NW,315,0.0,0.0,85,0.00,,,0.00,WUHU216HW,2013-03-31 11:45:00,
2013-03-31 07:50:00,47.4,43.1,0.00,NW,315,0.0,0.0,85,0.00,,,0.00,WUHU216HW,2013-03-31 11:50:00,
2013-03-31 07:55:00,47.6,43.3,0.00,NW,315,0.0,0.0,85,0.00,,,0.00,WUHU216HW,2013-03-31 11:55:00,
2013-03-31 08:00:00,47.6,43.3,0.00,NW,315,0.0,0.0,85,0.00,,,0.00,WUHU216HW,2013-03-31 12:00:00,
2013-03-31 08:05:00,47.6,43.3,0.00,NW,315,0.0,0.0,85,0.00,,,0.00,WUHU216HW,2013-03-31 12:05:00,
2013-03-31 08:10:00,47.8,43.5,0.00,NW,315,0.0,0.0,85,0.00,,,0.00,WUHU216HW,2013-03-31 12:10:00,
2013-03-31 08:15:00,47.8,43.5,0.00,NW,315,0.0,0.0,85,0.00,,,0.00,WUHU216HW,2013-03-31 12:15:00,
2013-03-31 08:20:00,47.8,43.5,0.00,NW,315,0.0,0.0,85,0.00,,,0.00,WUHU216HW,2013-03-31 12:20:00,
2013-03-31 08:25:00,48.0,43.7,0.00,NW,315,0.0,0.0,85,0.00,,,0.00,WUHU216HW,2013-03-31 12:25:00,
2013-03-31 08:30:00,48.0,43.7,0.00,NW,315,0.0,0.0,85,0.00,,,0.00,WUHU216HW,2013-03-31 12:30:00,
2013-03-31 08:35:00,48.0,44.0,0.00,NW,315,0.0,0.0,86,0.00,,,0.00,WUHU216HW,2013-03-31 12:35:00,
2013-03-31 08:40:00,48.0,44.0,0.00,NW,315,0.0,0.0,86,0.00,,,0.00,WUHU216HW,2013-03-31 12:40:00,
2013-03-31 08:45:00,48.2,44.2,0.00,NW,315,0.0,0.0,86,0.00,,,0.00,WUHU216HW,2013-03-31 12:45:00,
2013-03-31 08:50:00,48.2,44.2,0.00,NW,315,0.0,0.0,86,0.00,,,0.00,WUHU216HW,2013-03-31 12:50:00,
2013-03-31 08:55:00,48.3,44.3,0.00,NW,315,0.0,0.0,86,0.00,,,0.00,WUHU216HW,2013-03-31 12:55:00,
2013-03-31 09:00:00,48.3,44.3,0.00,NW,315,0.0,0.0,86,0.00,,,0.00,WUHU216HW,2013-03-31 13:00:00,
2013-03-31 09:05:00,48.5,44.5,0.00,NW,315,0.0,0.0,86,0.00,,,0.00,WUHU216HW,2013-03-31 13:05:00,
2013-03-31 09:10:00,48.7,44.7,0.00,NW,315,0.0,0.0,86,0.00,,,0.00,WUHU216HW,2013-03-31 13:10:00,
2013-03-31 09:15:00,48.7,44.7,0.00,NW,315,0.0,0.0,86,0.00,,,0.00,WUHU216HW,2013-03-31 13:15:00,
2013-03-31 09:20:00,48.7,44.7,0.00,NW,315,0.0,0.0,86,0.00,,,0.00,WUHU216HW,2013-03-31 13:20:00,
2013-03-31 09:25:00,48.7,44.7,0.00,NW,315,0.0,0.0,86,0.00,,,0.00,WUHU216HW,2013-03-31 13:25:00,
2013-03-31 09:30:00,48.9,44.8,0.00,NW,315,0.0,0.0,86,0.00,,,0.00,WUHU216HW,2013-03-31 13:30:00,
2013-03-31 09:35:00,48.9,44.8,0.00,NW,315,0.0,0.0,86,0.00,,,0.00,WUHU216HW,2013-03-31 13:35:00,
2013-03-31 09:40:00,48.9,44.8,0.00,NW,315,0.0,0.0,86,0.00,,,0.00,WUHU216HW,2013-03-31 13:40:00,
2013-03-31 09:45:00,48.9,44.8,0.00,NW,315,0.0,0.0,86,0.00,,,0.00,WUHU216HW,2013-03-31 13:45:00,
2013-03-31 09:50:00,49.1,45.0,0.00,NW,315,0.0,0.0,86,0.00,,,0.00,WUHU216HW,2013-03-31 13:50:00,
2013-03-31 09:55:00,49.1,45.0,0.00,NW,315,0.0,0.0,86,0.00,,,0.00,WUHU216HW,2013-03-31 13:55:00,
2013-03-31 10:00:00,49.2,45.2,0.00,NW,315,0.0,0.0,86,0.00,,,0.00,WUHU216HW,2013-03-31 14:00:00,
2013-03-31 10:05:00,49.6,45.8,0.00,NW,315,0.0,0.0,87,0.00,,,0.00,WUHU216HW,2013-03-31 14:05:00,
2013-03-31 10:10:00,49.8,46.0,0.00,NW,315,0.0,0.0,87,0.00,,,0.00,WUHU216HW,2013-03-31 14:10:00,
2013-03-31 10:15:00,50.3,46.5,0.00,NW,315,0.0,0.0,87,0.00,,,0.00,WUHU216HW,2013-03-31 14:15:00,
2013-03-31 10:20:00,50.7,46.9,0.00,NW,315,0.0,0.0,87,0.00,,,0.00,WUHU216HW,2013-03-31 14:20:00,
2013-03-31 10:25:00,50.9,47.1,0.00,NW,315,0.0,0.0,87,0.00,,,0.00,WUHU216HW,2013-03-31 14:25:00,
2013-03-31 10:30:00,51.0,47.2,0.00,NW,315,0.0,0.0,87,0.00,,,0.00,WUHU216HW,2013-03-31 14:30:00,
2013-03-31 10:35:00,51.4,47.6,0.00,NW,315,0.0,0.0,87,0.00,,,0.00,WUHU216HW,2013-03-31 14:35:00,
2013-03-31 10:40:00,51.6,47.8,0.00,NW,315,0.0,0.0,87,0.00,,,0.00,WUHU216HW,2013-03-31 14:40:00,
2013-03-31 10:45:00,52.1,48.3,0.00,NW,315,0.0,0.0,87,0.00,,,0.00,WUHU216HW,2013-03-31 14:45:00,
2013-03-31 10:50:00,52.5,48.7,0.00,NW,315,0.0,0.0,87,0.00,,,0.00,WUHU216HW,2013-03-31 14:50:00,
2013-03-31 10:55:00,52.8,49.0,0.00,NW,315,0.0,0.0,87,0.00,,,0.00,WUHU216HW,2013-03-31 14:55:00,
2013-03-31 11:00:00,53.4,49.6,0.00,NW,315,0.0,0.0,87,0.00,,,0.00,WUHU216HW,2013-03-31 15:00:00,
2013-03-31 11:05:00,53.6,49.8,0.00,NW,315,0.0,0.0,87,0.00,,,0.00,WUHU216HW,2013-03-31 15:05:00,
2013-03-31 11:10:00,54.1,50.3,0.00,NW,315,0.0,0.0,87,0.00,,,0.00,WUHU216HW,2013-03-31 15:10:00,
2013-03-31 11:15:00,54.3,50.4,0.00,NW,315,0.0,0.0,87,0.00,,,0.00,WUHU216HW,2013-03-31 15:15:00,
2013-03-31 11:20:00,54.5,50.6,0.00,South,180,0.0,0.0,87,0.00,,,0.00,WUHU216HW,2013-03-31 15:20:00,
2013-03-31 11:25:00,54.6,50.8,0.00,South,180,0.0,0.0,87,0.00,,,0.00,WUHU216HW,2013-03-31 15:25:00,
2013-03-31 11:30:00,55.0,51.1,0.00,SSE,158,0.0,0.0,87,0.00,,,0.00,WUHU216HW,2013-03-31 15:30:00,
2013-03-31 11:35:00,55.2,51.3,0.00,SSE,158,0.0,0.0,87,0.00,,,0.00,WUHU216HW,2013-03-31 15:35:00,
2013-03-31 11:40:00,55.5,51.7,0.00,SSE,158,0.0,0.0,87,0.00,,,0.00,WUHU216HW,2013-03-31 15:40:00,
2013-03-31 11:45:00,56.1,52.0,0.00,SSE,158,0.0,0.0,87,0.00,,,0.00,WUHU216HW,2013-03-31 15:45:00,
2013-03-31 11:50:00,56.4,52.6,0.00,SSE,158,0.0,0.0,87,0.00,,,0.00,WUHU216HW,2013-03-31 15:50:00,
2013-03-31 11:55:00,56.6,52.4,0.00,SSE,158,0.0,0.0,86,0.00,,,0.00,WUHU216HW,2013-03-31 15:55:00,
2013-03-31 12:00:00,57.0,52.8,0.00,SSE,158,0.0,0.0,86,0.00,,,0.00,WUHU216HW,2013-03-31 16:00:00,
2013-03-31 12:05:00,57.3,52.8,0.00,SSE,158,0.0,0.0,85,0.00,,,0.00,WUHU216HW,2013-03-31 16:05:00,
2013-03-31 12:10:00,57.7,53.2,0.00,SSE,158,0.0,0.0,85,0.00,,,0.00,WUHU216HW,2013-03-31 16:10:00,
2013-03-31 12:15:00,57.9,53.0,0.00,SSE,158,0.0,0.0,84,0.00,,,0.00,WUHU216HW,2013-03-31 16:15:00,
2013-03-31 12:20:00,58.2,53.1,0.00,SSE,158,0.0,0.0,83,0.00,,,0.00,WUHU216HW,2013-03-31 16:20:00,
2013-03-31 12:25:00,58.6,53.4,0.00,SSE,158,0.0,0.0,83,0.00,,,0.00,WUHU216HW,2013-03-31 16:25:00,
2013-03-31 12:30:00,58.6,52.8,0.00,SSE,158,0.0,0.0,81,0.00,,,0.00,WUHU216HW,2013-03-31 16:30:00,
2013-03-31 12:35:00,58.8,53.0,0.00,SSE,158,0.0,0.0,81,0.00,,,0.00,WUHU216HW,2013-03-31 16:35:00,
2013-03-31 12:40:00,58.8,52.7,0.00,South,180,0.0,0.0,80,0.00,,,0.00,WUHU216HW,2013-03-31 16:40:00,
2013-03-31 12:45:00,58.8,52.7,0.00,South,180,0.0,0.0,80,0.00,,,0.00,WUHU216HW,2013-03-31 16:45:00,
2013-03-31 12:50:00,58.8,52.3,0.00,South,180,0.0,0.0,79,0.00,,,0.00,WUHU216HW,2013-03-31 16:50:00,
2013-03-31 12:55:00,59.1,52.7,0.00,SSE,158,0.0,0.0,79,0.00,,,0.00,WUHU216HW,2013-03-31 16:55:00,
2013-03-31 13:00:00,59.1,52.3,0.00,SSE,158,0.0,0.0,78,0.00,,,0.00,WUHU216HW,2013-03-31 17:00:00,
2013-03-31 13:05:00,59.0,51.9,0.00,SSE,158,0.0,0.0,78,0.00,,,0.00,WUHU216HW,2013-03-31 17:05:00,
2013-03-31 13:10:00,58.8,51.9,0.00,SSE,158,0.0,0.0,78,0.00,,,0.00,WUHU216HW,2013-03-31 17:10:00,
2013-03-31 13:15:00,58.8,51.9,0.00,SSE,158,0.0,0.0,78,0.00,,,0.00,WUHU216HW,2013-03-31 17:15:00,
2013-03-31 13:20:00,58.8,51.9,0.00,SSE,158,0.0,0.0,78,0.00,,,0.00,WUHU216HW,2013-03-31 17:20:00,
2013-03-31 13:25:00,58.8,51.9,0.00,SSE,158,0.0,0.0,78,0.00,,,0.00,WUHU216HW,2013-03-31 17:25:00,
2013-03-31 13:30:00,58.8,51.9,0.00,SSE,158,0.0,0.0,78,0.00,,,0.00,WUHU216HW,2013-03-31 17:30:00,
2013-03-31 13:35:00,58.8,51.9,0.00,SSE,158,0.0,0.0,78,0.00,,,0.00,WUHU216HW,2013-03-31 17:35:00,
2013-03-31 13:40:00,58.8,51.9,0.00,SSE,158,0.0,0.0,78,0.00,,,0.00,WUHU216HW,2013-03-31 17:40:00,
2013-03-31 13:45:00,59.1,52.3,0.00,SSE,158,0.0,0.0,77,0.00,,,0.00,WUHU216HW,2013-03-31 17:45:00,
2013-03-31 13:50:00,59.5,52.5,0.00,SSE,158,0.0,0.0,78,0.00,,,0.00,WUHU216HW,2013-03-31 17:50:00,
2013-03-31 13:55:00,59.5,52.3,0.00,SSE,158,0.0,0.0,77,0.00,,,0.00,WUHU216HW,2013-03-31 17:55:00,
2013-03-31 14:00:00,59.5,52.3,0.00,SSE,158,0.0,0.0,77,0.00,,,0.00,WUHU216HW,2013-03-31 18:00:00,
2013-03-31 14:05:00,59.5,51.9,0.00,SSE,158,0.0,0.0,76,0.00,,,0.00,WUHU216HW,2013-03-31 18:05:00,
2013-03-31 14:10:00,59.9,52.3,0.00,SSE,158,0.0,0.0,76,0.00,,,0.00,WUHU216HW,2013-03-31 18:10:00,
2013-03-31 14:15:00,60.0,52.3,0.00,SSE,158,0.0,0.0,76,0.00,,,0.00,WUHU216HW,2013-03-31 18:15:00,
2013-03-31 14:20:00,60.0,52.1,0.00,SSE,158,0.0,0.0,75,0.00,,,0.00,WUHU216HW,2013-03-31 18:20:00,
2013-03-31 14:25:00,60.0,52.1,0.00,SSE,158,0.0,0.0,75,0.00,,,0.00,WUHU216HW,2013-03-31 18:25:00,
2013-03-31 14:30:00,60.0,51.8,0.00,SSE,158,0.0,0.0,74,0.00,,,0.00,WUHU216HW,2013-03-31 18:30:00,
2013-03-31 14:35:00,60.4,52.1,0.00,SSE,158,0.0,0.0,74,0.00,,,0.00,WUHU216HW,2013-03-31 18:35:00,
2013-03-31 14:40:00,60.6,51.8,0.00,SSE,158,0.0,0.0,73,0.00,,,0.00,WUHU216HW,2013-03-31 18:40:00,
2013-03-31 14:45:00,60.4,51.8,0.00,SSE,158,0.0,0.0,73,0.00,,,0.00,WUHU216HW,2013-03-31 18:45:00,
2013-03-31 14:50:00,60.6,51.9,0.00,SSE,158,0.0,0.0,73,0.00,,,0.00,WUHU216HW,2013-03-31 18:50:00,
2013-03-31 14:55:00,60.6,51.9,0.00,SSE,158,0.0,0.0,73,0.00,,,0.00,WUHU216HW,2013-03-31 18:55:00,
2013-03-31 15:00:00,60.9,52.6,0.00,SSE,158,0.0,0.0,74,0.00,,,0.00,WUHU216HW,2013-03-31 19:00:00,
2013-03-31 15:05:00,60.9,52.3,0.00,SSE,158,2.4,2.4,73,0.00,,,0.00,WUHU216HW,2013-03-31 19:05:00,
2013-03-31 15:10:00,60.9,52.3,0.00,SSE,158,0.8,2.4,73,0.00,,,0.00,WUHU216HW,2013-03-31 19:10:00,
2013-03-31 15:15:00,60.9,52.3,0.00,SSE,158,0.0,0.8,73,0.00,,,0.00,WUHU216HW,2013-03-31 19:15:00,
2013-03-31 15:20:00,60.6,51.9,0.00,SE,135,0.0,0.0,73,0.00,,,0.00,WUHU216HW,2013-03-31 19:20:00,
2013-03-31 15:25:00,60.6,51.9,0.00,SSE,158,0.0,0.0,73,0.00,,,0.00,WUHU216HW,2013-03-31 19:25:00,
2013-03-31 15:30:00,60.4,51.8,0.00,SSE,158,0.0,0.0,73,0.00,,,0.00,WUHU216HW,2013-03-31 19:30:00,
2013-03-31 15:35:00,60.0,51.4,0.00,SSE,158,0.0,0.0,73,0.00,,,0.00,WUHU216HW,2013-03-31 19:35:00,
2013-03-31 15:40:00,59.9,51.0,0.00,SSE,158,0.0,0.0,73,0.00,,,0.00,WUHU216HW,2013-03-31 19:40:00,
2013-03-31 15:45:00,59.5,50.9,0.00,SE,135,0.0,0.0,73,0.00,,,0.00,WUHU216HW,2013-03-31 19:45:00,
2013-03-31 15:50:00,59.1,50.9,0.00,SSE,158,0.0,0.0,74,0.00,,,0.00,WUHU216HW,2013-03-31 19:50:00,
2013-03-31 15:55:00,59.1,51.2,0.00,SSE,158,0.0,0.0,75,0.00,,,0.00,WUHU216HW,2013-03-31 19:55:00,
2013-03-31 16:00:00,59.0,51.0,0.00,SE,135,0.0,1.3,75,0.00,,,0.00,WUHU216HW,2013-03-31 20:00:00,
2013-03-31 16:05:00,59.1,51.2,0.00,SE,135,0.0,1.3,75,0.00,,,0.00,WUHU216HW,2013-03-31 20:05:00,
2013-03-31 16:10:00,59.1,51.2,0.00,SSE,158,0.0,0.0,75,0.00,,,0.00,WUHU216HW,2013-03-31 20:10:00,
2013-03-31 16:15:00,58.8,50.9,0.00,SSE,158,0.0,0.0,75,0.00,,,0.00,WUHU216HW,2013-03-31 20:15:00,
2013-03-31 16:20:00,58.8,50.9,0.00,SSW,203,0.0,0.0,75,0.00,,,0.00,WUHU216HW,2013-03-31 20:20:00,
2013-03-31 16:25:00,58.4,50.5,0.00,SSW,203,0.0,0.0,75,0.00,,,0.00,WUHU216HW,2013-03-31 20:25:00,
2013-03-31 16:30:00,58.1,50.0,0.00,SSW,203,0.0,0.0,75,0.00,,,0.00,WUHU216HW,2013-03-31 20:30:00,
2013-03-31 16:35:00,57.7,49.8,0.00,WNW,293,0.0,0.0,75,0.00,,,0.00,WUHU216HW,2013-03-31 20:35:00,
2013-03-31 16:40:00,57.0,49.4,0.00,WNW,293,0.0,0.0,76,0.00,,,0.00,WUHU216HW,2013-03-31 20:40:00,
2013-03-31 16:45:00,56.4,48.9,0.00,WNW,293,0.0,0.0,77,0.00,,,0.00,WUHU216HW,2013-03-31 20:45:00,
2013-03-31 16:50:00,56.1,48.9,0.00,WNW,293,0.0,0.0,77,0.00,,,0.00,WUHU216HW,2013-03-31 20:50:00,
2013-03-31 16:55:00,55.9,49.1,0.00,WNW,293,0.0,0.0,78,0.00,,,0.00,WUHU216HW,2013-03-31 20:55:00,
2013-03-31 17:00:00,55.5,48.7,0.00,WNW,293,0.0,0.0,78,0.00,,,0.00,WUHU216HW,2013-03-31 21:00:00,
2013-03-31 17:05:00,55.5,48.7,0.00,WNW,293,0.0,0.0,78,0.00,,,0.00,WUHU216HW,2013-03-31 21:05:00,
2013-03-31 17:10:00,55.2,48.7,0.00,WNW,293,0.0,0.0,79,0.00,,,0.00,WUHU216HW,2013-03-31 21:10:00,
2013-03-31 17:15:00,55.2,48.7,0.00,WNW,293,0.0,0.0,79,0.00,,,0.00,WUHU216HW,2013-03-31 21:15:00,
2013-03-31 17:20:00,55.0,48.9,0.00,WNW,293,0.0,0.0,80,0.00,,,0.00,WUHU216HW,2013-03-31 21:20:00,
2013-03-31 17:25:00,55.0,48.9,0.00,WNW,293,0.0,0.0,80,0.00,,,0.00,WUHU216HW,2013-03-31 21:25:00,
2013-03-31 17:30:00,55.0,48.9,0.00,WNW,293,0.0,0.0,80,0.00,,,0.00,WUHU216HW,2013-03-31 21:30:00,
2013-03-31 17:35:00,54.8,49.1,0.00,WNW,293,0.0,0.0,81,0.00,,,0.00,WUHU216HW,2013-03-31 21:35:00,
2013-03-31 17:40:00,54.6,48.9,0.00,WNW,293,0.0,0.0,81,0.00,,,0.00,WUHU216HW,2013-03-31 21:40:00,
2013-03-31 17:45:00,54.6,48.9,0.00,SSW,203,0.0,0.0,81,0.00,,,0.00,WUHU216HW,2013-03-31 21:45:00,
2013-03-31 17:50:00,54.6,49.2,0.00,SSW,203,0.0,1.7,82,0.00,,,0.00,WUHU216HW,2013-03-31 21:50:00,
2013-03-31 17:55:00,54.5,49.1,0.00,SSW,203,0.0,1.7,82,0.00,,,0.00,WUHU216HW,2013-03-31 21:55:00,
2013-03-31 18:00:00,54.5,49.4,0.00,SSW,203,0.0,0.0,83,0.00,,,0.00,WUHU216HW,2013-03-31 22:00:00,
2013-03-31 18:05:00,54.5,49.4,0.00,SSW,203,0.0,0.0,83,0.00,,,0.00,WUHU216HW,2013-03-31 22:05:00,
2013-03-31 18:10:00,54.3,49.2,0.00,SSW,203,0.0,0.0,83,0.00,,,0.00,WUHU216HW,2013-03-31 22:10:00,
2013-03-31 18:15:00,54.3,49.2,0.00,SSW,203,0.0,0.0,83,0.00,,,0.00,WUHU216HW,2013-03-31 22:15:00,
2013-03-31 18:20:00,54.3,49.5,0.00,SSW,203,0.0,0.0,84,0.00,,,0.00,WUHU216HW,2013-03-31 22:20:00,
2013-03-31 18:25:00,54.3,49.5,0.00,SSW,203,0.0,0.0,84,0.00,,,0.00,WUHU216HW,2013-03-31 22:25:00,
2013-03-31 18:30:00,54.3,49.5,0.00,SSW,203,0.0,0.0,84,0.00,,,0.00,WUHU216HW,2013-03-31 22:30:00,
2013-03-31 18:35:00,54.3,49.5,0.00,SSW,203,0.0,0.0,84,0.00,,,0.00,WUHU216HW,2013-03-31 22:35:00,
2013-03-31 18:40:00,54.3,49.5,0.00,SSW,203,0.0,0.0,84,0.00,,,0.00,WUHU216HW,2013-03-31 22:40:00,
2013-03-31 18:45:00,54.1,49.3,0.00,SSW,203,0.0,0.0,84,0.00,,,0.00,WUHU216HW,2013-03-31 22:45:00,
2013-03-31 18:50:00,54.1,49.3,0.00,SSW,203,0.0,0.0,84,0.00,,,0.00,WUHU216HW,2013-03-31 22:50:00,
2013-03-31 18:55:00,54.1,49.3,0.00,SSW,203,0.0,0.0,84,0.00,,,0.00,WUHU216HW,2013-03-31 22:55:00,
2013-03-31 19:00:00,53.9,49.2,0.00,SSW,203,0.0,0.0,84,0.00,,,0.00,WUHU216HW,2013-03-31 23:00:00,
2013-03-31 19:05:00,53.9,49.2,0.00,SSW,203,0.0,0.0,84,0.00,,,0.00,WUHU216HW,2013-03-31 23:05:00,
2013-03-31 19:10:00,53.9,49.5,0.00,SSW,203,0.0,0.0,85,0.00,,,0.00,WUHU216HW,2013-03-31 23:10:00,
2013-03-31 19:15:00,53.7,49.3,0.00,SSW,203,0.0,0.0,85,0.00,,,0.00,WUHU216HW,2013-03-31 23:15:00,
2013-03-31 19:20:00,53.7,49.3,0.00,SSW,203,0.0,0.0,85,0.00,,,0.00,WUHU216HW,2013-03-31 23:20:00,
2013-03-31 19:25:00,53.7,49.3,0.00,SSW,203,0.0,0.0,85,0.00,,,0.00,WUHU216HW,2013-03-31 23:25:00,
2013-03-31 19:30:00,53.7,49.3,0.00,SSW,203,0.0,0.0,85,0.00,,,0.00,WUHU216HW,2013-03-31 23:30:00,
2013-03-31 19:35:00,53.4,49.0,0.00,SSW,203,0.0,0.0,85,0.00,,,0.00,WUHU216HW,2013-03-31 23:35:00,
2013-03-31 19:40:00,53.4,49.0,0.00,SSW,203,0.0,0.0,85,0.00,,,0.00,WUHU216HW,2013-03-31 23:40:00,
2013-03-31 19:45:00,53.4,49.0,0.00,SSW,203,0.0,0.0,85,0.00,,,0.00,WUHU216HW,2013-03-31 23:45:00,
2013-03-31 19:50:00,53.4,49.0,0.00,SSW,203,0.0,0.0,85,0.00,,,0.00,WUHU216HW,2013-03-31 23:50:00,
2013-03-31 19:55:00,53.2,48.8,0.00,SSW,203,0.0,0.0,85,0.00,,,0.00,WUHU216HW,2013-03-31 23:55:00,
2013-03-31 20:00:00,53.2,48.8,0.00,SSW,203,0.0,0.0,85,0.00,,,0.00,WUHU216HW,2013-04-01 00:00:00,
2013-03-31 20:05:00,53.2,48.8,0.00,SSW,203,0.0,0.0,85,0.00,,,0.00,WUHU216HW,2013-04-01 00:05:00,
2013-03-31 20:10:00,52.8,48.4,0.00,SSW,203,0.0,0.0,85,0.00,,,0.00,WUHU216HW,2013-04-01 00:10:00,
2013-03-31 20:15:00,52.8,48.4,0.00,SSW,203,0.0,0.0,85,0.00,,,0.00,WUHU216HW,2013-04-01 00:15:00,
2013-03-31 20:20:00,52.8,48.4,0.00,SSW,203,0.0,0.0,85,0.00,,,0.00,WUHU216HW,2013-04-01 00:20:00,
2013-03-31 20:25:00,52.7,48.2,0.00,SSW,203,0.0,0.0,85,0.00,,,0.00,WUHU216HW,2013-04-01 00:25:00,
2013-03-31 20:30:00,52.7,48.5,0.00,SSW,203,0.0,0.0,86,0.00,,,0.00,WUHU216HW,2013-04-01 00:30:00,
2013-03-31 20:35:00,52.7,48.5,0.00,SSW,203,0.0,0.0,86,0.00,,,0.00,WUHU216HW,2013-04-01 00:35:00,
2013-03-31 20:40:00,52.7,48.5,0.00,SSW,203,0.0,0.0,86,0.00,,,0.00,WUHU216HW,2013-04-01 00:40:00,
2013-03-31 20:45:00,52.5,48.4,0.00,SSW,203,0.0,0.0,86,0.00,,,0.00,WUHU216HW,2013-04-01 00:45:00,
2013-03-31 20:50:00,52.5,48.4,0.00,SSW,203,0.0,0.0,86,0.00,,,0.00,WUHU216HW,2013-04-01 00:50:00,
2013-03-31 20:55:00,52.5,48.4,0.00,SSW,203,0.0,0.0,86,0.00,,,0.00,WUHU216HW,2013-04-01 00:55:00,
2013-03-31 21:00:00,52.5,48.4,0.00,SSW,203,0.0,0.0,86,0.00,,,0.00,WUHU216HW,2013-04-01 01:00:00,
2013-03-31 21:05:00,52.3,48.2,0.00,SSW,203,0.0,0.0,86,0.00,,,0.00,WUHU216HW,2013-04-01 01:05:00,
2013-03-31 21:10:00,52.3,48.2,0.00,SSW,203,0.0,0.0,86,0.00,,,0.00,WUHU216HW,2013-04-01 01:10:00,
2013-03-31 21:15:00,52.3,48.2,0.00,SSW,203,0.0,0.0,86,0.00,,,0.00,WUHU216HW,2013-04-01 01:15:00,
2013-03-31 21:20:00,52.3,48.2,0.00,SSW,203,0.0,0.0,86,0.00,,,0.00,WUHU216HW,2013-04-01 01:20:00,
2013-03-31 21:25:00,52.3,48.2,0.00,SSW,203,0.0,0.0,86,0.00,,,0.00,WUHU216HW,2013-04-01 01:25:00,
2013-03-31 21:30:00,52.1,48.0,0.00,SSW,203,0.0,0.0,86,0.00,,,0.00,WUHU216HW,2013-04-01 01:30:00,
2013-03-31 21:35:00,52.1,48.0,0.00,SSW,203,0.0,0.0,86,0.00,,,0.00,WUHU216HW,2013-04-01 01:35:00,
2013-03-31 21:40:00,52.1,48.0,0.00,SSW,203,0.0,0.0,86,0.00,,,0.00,WUHU216HW,2013-04-01 01:40:00,
2013-03-31 21:45:00,52.1,48.0,0.00,SSW,203,0.0,0.0,86,0.00,,,0.00,WUHU216HW,2013-04-01 01:45:00,
2013-03-31 21:50:00,51.9,47.8,0.00,SSW,203,0.0,0.0,86,0.00,,,0.00,WUHU216HW,2013-04-01 01:50:00,
2013-03-31 21:55:00,51.9,47.8,0.00,SSW,203,0.0,0.0,86,0.00,,,0.00,WUHU216HW,2013-04-01 01:55:00,
2013-03-31 22:00:00,51.9,47.8,0.00,SSW,203,0.0,0.0,86,0.00,,,0.00,WUHU216HW,2013-04-01 02:00:00,
2013-03-31 22:05:00,51.9,48.1,0.00,SSW,203,0.0,0.0,87,0.00,,,0.00,WUHU216HW,2013-04-01 02:05:00,
2013-03-31 22:10:00,51.8,48.0,0.00,SSW,203,0.0,0.0,87,0.00,,,0.00,WUHU216HW,2013-04-01 02:10:00,
2013-03-31 22:15:00,51.8,48.0,0.00,SSW,203,0.0,0.0,87,0.00,,,0.00,WUHU216HW,2013-04-01 02:15:00,
2013-03-31 22:20:00,51.8,48.0,0.00,SSW,203,0.0,0.0,87,0.00,,,0.00,WUHU216HW,2013-04-01 02:20:00,
2013-03-31 22:25:00,51.8,48.0,0.00,SSW,203,0.0,0.0,87,0.00,,,0.00,WUHU216HW,2013-04-01 02:25:00,
2013-03-31 22:30:00,51.6,47.8,0.00,SSW,203,0.0,0.0,87,0.00,,,0.00,WUHU216HW,2013-04-01 02:30:00,
2013-03-31 22:35:00,51.6,47.8,0.00,SSW,203,0.0,0.0,87,0.00,,,0.00,WUHU216HW,2013-04-01 02:35:00,
2013-03-31 22:40:00,51.6,47.8,0.00,SSW,203,0.0,0.0,87,0.00,,,0.00,WUHU216HW,2013-04-01 02:40:00,
2013-03-31 22:45:00,51.6,47.8,0.00,SSW,203,0.0,0.0,87,0.00,,,0.00,WUHU216HW,2013-04-01 02:45:00,
2013-03-31 22:50:00,51.6,47.8,0.00,SSW,203,0.0,0.0,87,0.00,,,0.00,WUHU216HW,2013-04-01 02:50:00,
2013-03-31 22:55:00,51.6,47.8,0.00,SSW,203,0.0,0.0,87,0.00,,,0.00,WUHU216HW,2013-04-01 02:55:00,
2013-03-31 23:00:00,51.6,47.8,0.00,SSW,203,0.0,0.0,87,0.00,,,0.00,WUHU216HW,2013-04-01 03:00:00,
2013-03-31 23:05:00,51.6,47.8,0.00,SSW,203,0.0,0.0,87,0.00,,,0.00,WUHU216HW,2013-04-01 03:05:00,
2013-03-31 23:10:00,51.6,47.8,0.00,SSW,203,0.0,0.0,87,0.00,,,0.00,WUHU216HW,2013-04-01 03:10:00,
2013-03-31 23:15:00,51.6,47.8,0.00,SSW,203,0.0,0.0,87,0.00,,,0.00,WUHU216HW,2013-04-01 03:15:00,
2013-03-31 23:20:00,51.8,48.0,0.00,SSW,203,0.0,0.0,87,0.00,,,0.00,WUHU216HW,2013-04-01 03:20:00,
2013-03-31 23:25:00,51.8,48.0,0.00,SSW,203,0.0,0.0,87,0.00,,,0.00,WUHU216HW,2013-04-01 03:25:00,
2013-03-31 23:30:00,51.8,48.0,0.00,SSW,203,0.0,0.0,87,0.00,,,0.00,WUHU216HW,2013-04-01 03:30:00,
2013-03-31 23:35:00,51.8,48.0,0.00,SSW,203,0.0,0.0,87,0.00,,,0.00,WUHU216HW,2013-04-01 03:35:00,
2013-03-31 23:40:00,51.8,48.0,0.00,South,180,0.0,2.0,87,0.00,,,0.00,WUHU216HW,2013-04-01 03:40:00,
2013-03-31 23:45:00,51.6,47.8,0.00,SSE,158,0.0,2.9,87,0.00,,,0.00,WUHU216HW,2013-04-01 03:45:00,
2013-03-31 23:50:00,51.6,48.1,0.00,SE,135,7.1,7.1,88,0.00,,,0.00,WUHU216HW,2013-04-01 03:50:00,
2013-03-31 23:55:00,51.4,47.9,0.00,NNW,338,0.0,7.1,88,0.00,,,0.00,WUHU216HW,2013-04-01 03:55:00,